Weather in Kalinovka

Russia / Kaliningrad Oblast     54˚48′20″N   21˚46′34″E
temp.,
°C
wind,
m/s
gust,
m/s
humid.,
%
clouds,
%
prec.,
mm/h
press.,
hPa
HPBL,
m
16 january, sat
sat1623:00−12˚nnw33930 0.0 101952
02:00−12˚nnw33910 0.0 101850
05:00−10˚w229499 0.1 101638
08:00−9˚ssw3695100 0.9 1014271
11:00−8˚e71093100 5.9 1012395
14:00−9˚ne689098 6.1 1012639
17:00−13˚ne499097 0.1 1015267
20:00−17˚ne369449 0.1 1018113
17 january, sun
sun1723:00−19˚ne369445 0.0 1019108
02:00−20˚e239337 0.0 102027
05:00−20˚ene229139 0.0 102021
08:00−21˚ese119051 0.0 102120
11:00−18˚se118571 0.0 102237
14:00−15˚wsw118368 0.0 1022182
17:00−18˚sw119113 0.0 102220
20:00−19˚ssw119111 0.0 102320
18 january, mon
mon1823:00−19˚ssw12930 0.0 102320
02:00−19˚ssw22930 0.0 102320
05:00−19˚ssw229373 0.0 102220
08:00−17˚s339584 0.0 102342
11:00−15˚ssw359494 0.0 1023145
14:00−11˚ssw359176 0.0 1022209
17:00−14˚ssw239275 0.0 102124
20:00−14˚s349187 0.0 102157
19 january, tue
tue1923:00−14˚s3590100 0.0 102186
02:00−15˚s348889 0.0 102076
05:00−15˚sse468963 0.0 101996
08:00−14˚sse499238 0.0 1018155
11:00−10˚s589486 0.1 1017264
14:00−6˚s479488 0.1 1016268
17:00−4˚s4895100 0.1 1015247
20:00−4˚s4894100 0.2 1015206
20 january, wed
wed2023:00−2˚sse61194100 0.0 1014460
02:00s71489100 0.0 1011656
05:00−1˚s81496100 1.2 1009526
08:00s71394100 2.8 1008437
11:00+1˚s613100100 0.4 1008393
14:00+2˚ssw613100100 1.1 1007462
17:00+1˚s71498100 0.8 1006458
20:00+1˚ssw61497100 2.4 1006506